Regional Weather Roundup
Issued by NWS Wilmington, NC

Home | Current Version | Previous Version | Text Only | Print | Product List | Glossary On
Versions: 1 2 3 4 5 6 7 8 9 10 11 12 13 14 15 16 17 18 19 20 21 22 23 24 25 26 27 28 29 30 31 32 33 34 35 36 37 38 39 40 41 42 43 44 45 46 47 48 49 50
905
ASUS42 KILM 281013
RWRILM
RWRILM
REGIONAL HOURLY WEATHER ROUNDUP
NATIONAL WEATHER SERVICE WILMINGTON NC
600 AM EDT SAT MAY 28 2016

NOTE: "FAIR" INDICATES FEW OR NO CLOUDS BELOW 12,000 FEET WITH NO
SIGNIFICANT WEATHER AND/OR OBSTRUCTIONS TO VISIBILITY.

...............WFO WILMINGTON COUNTY WARNING AREA...............

......COASTAL NC AND SC COUNTIES......

CITY           SKY/WX    TMP DP  RH WIND       PRES   REMARKS
WILMINGTON     PTCLDY    64  63  96 NE5       30.12R
N MYRTLE BEACH CLOUDY    68  65  90 NE7       30.10R
MYRTLE BEACH   MOCLDY    70  61  73 N7        30.12R

......INLAND NC AND SC COUNTIES.......

CITY           SKY/WX    TMP DP  RH WIND       PRES   REMARKS
LUMBERTON      PTCLDY    62  59  90 CALM      30.14R
ELIZABETHTOWN  PTCLDY    61  61 100 CALM      30.13S
WHITEVILLE     CLEAR     63  62  96 CALM      30.12R FOG
FLORENCE       CLOUDY    65  62  90 NE5       30.13R
DARLINGTON     CLEAR     61  59  93 CALM      30.14R
KINGSTREE      CLOUDY    68  63  83 CALM      30.11R
HARTSVILLE     FAIR      61  59  94 CALM      30.13R
BENNETTSVILLE  FAIR      61  59  94 CALM      30.13S
CONWAY         FAIR      63  61  94 CALM      30.11R FOG
GEORGETOWN     NOT AVBL
MARION         CLOUDY    63  61  94 NE5       30.13R

....................REST OF NORTH CAROLINA......................

.........EASTERN NC.........

CITY           SKY/WX    TMP DP  RH WIND       PRES   REMARKS
CAPE HATTERAS  CLEAR     70  67  90 E5        30.15R
JACKSONVILLE   PTCLDY    62  61  96 N5        30.14S
MOREHEAD CITY  CLEAR     67  66  97 NE5       30.14R
KENANSVILLE    PTCLDY    58  57  97 CALM      30.15S
NEW BERN       FOG       63  60  90 CALM      30.15S VSB 3/4
ELIZABETH CITY CLEAR     62  61  96 CALM      30.17R

.........CENTRAL NC.........

CITY           SKY/WX    TMP DP  RH WIND       PRES   REMARKS
RALEIGH DURHAM PTCLDY    60  58  92 CALM      30.16S
ROCKY MOUNT    CLEAR     56  56 100 CALM      30.16R FOG
ROANOKE RAPIDS NOT AVBL
FAYETTEVILLE   PTCLDY    60  57  89 N5        30.14R
HOFFMAN        CLEAR     56  55  96 N2        30.15R

.........WESTERN NC.........

CITY           SKY/WX    TMP DP  RH WIND       PRES   REMARKS
CHARLOTTE      PTCLDY    64  56  75 CALM      30.15S
GREENSBORO     MOCLDY    63  60  90 CALM      30.16R
HICKORY        NOT AVBL
BOONE          NOT AVBL
ASHEVILLE      NOT AVBL

.....................REST OF SOUTH CAROLINA.....................

.........EASTERN SC.........

CITY           SKY/WX    TMP DP  RH WIND       PRES   REMARKS
CHARLESTON     MOCLDY    70  67  90 N6        30.07R
BEAUFORT MCAS  CLOUDY    71  68  90 NE7       30.07R
HILTON HEAD    NOT AVBL

.........CENTRAL SC.........

CITY           SKY/WX    TMP DP  RH WIND       PRES   REMARKS
COLUMBIA       PTCLDY    61  56  83 CALM      30.11S
ORANGEBURG     CLOUDY    69  64  84 NE5       30.10R
SUMTER SHAW    CLOUDY    64  60  87 NE6       30.10R

.........WESTERN SC.........

CITY           SKY/WX    TMP DP  RH WIND       PRES   REMARKS
GREENVILLE     NOT AVBL
ROCK HILL      CLEAR     59  56  89 CALM      30.15R
ANDERSON       CLEAR     63  59  87 CALM      30.13S
CLEMSON        NOT AVBL
GREENWOOD      CLEAR     59  56  89 CALM      30.15R


...................COASTAL AND OFFSHORE REPORTS..................

................LOCAL PIERS AND NC RESERVE................


STATION/POSITION TIME  SKY/WX   TEMP    WIND        PRES    VSBY
                                AIR SEA DIR/SP/G
                 (UTC)          (F)     (DEG/KT/KT) (MB)    (MI)
JOHNY MRCER PIER 0900            70 76   10/  6/  7 1018.5S
NC RESRV MASNBRO NOT AVBL
OCEAN CREST PIER NOT AVBL
SPRINGMAID  PIER 0900            72 76  350/  6/  7 1018.4S


................COASTAL AND OFFSHORE BUOYS................


STATION/POSITION TIME  SKY/WX   TEMP    WIND        PRES    VSBY
                                AIR SEA DIR/SP/G
                 (UTC)          (F)     (DEG/KT/KT) (MB)    (MI)
DIMNDSHOAL 41025 0950            76 78  110/ 10/ 14 1020.6R
WVE H/P(F/S)=  4/ 9 SWL H/P/D(F/S/D)=  3/130/ 9

CAPE LOOKOUT     1000            74     100/  9/  9 1020.1R
ONSLOW BAY 41036 NOT AVBL
ONSLOW BAY 41064 0908            76 74   90/  8/ 10 1019.7R
ONSLOW BAY 41159 0925               74                N/A
WVE H/P(F/S)=  5/ 7 SWL H/P/D(F/S/D)=  2/140/11

5SE WRITBC 41038 0908            74 74   50/  8/ 10 1020.0S
MASNBO INL 41110 0906               74                N/A
WVE H/P(F/S)=  3/ 7

WILM HARBR 41108 0926               76                N/A
WVE H/P(F/S)=  3/ 8

27SE WRITB 41037 0908            76 74   90/  8/ 12 1018.7R
FRYING PAN 41013 0900            77 76   50/ 12/ 16 1018.3R
SUNST NRSH 41024 0908            72 76   50/ 12/ 14 1018.5F
CAPRS NRSH 41029 0908            75 76   50/ 14/ 17 1017.4F
EDISTO     41004 0950            77 76   50/ 12/ 16 1016.9R
WVE H/P(F/S)=  5/ 8 SWL H/P/D(F/S/D)=  3/ 8



..........OFFSHORE BUOYS BEYOND 100 NM OFFSHORE...........
.....IN A TRIANGLE---HAT TO BERMUDA TO BAHAMAS TO HAT.....


STATION/POSITION TIME  SKY/WX   TEMP    WIND        PRES    VSBY
                                AIR SEA DIR/SP/G
                 (UTC)          (F)     (DEG/KT/KT) (MB)    (MI)
150E HAT   41001 NOT AVBL
W BERMUDA  41048 0950            76 75  120/ 16/ 17 1021.0R
WVE H/P(F/S)=  5/ 7 SWL H/P/D(F/S/D)=  2/130/ 8

ATLANTIC S 41049 0950            77 78   90/ 14/ 16 1021.8R
WVE H/P(F/S)=  5/ 8 SWL H/P/D(F/S/D)=  3/100/ 8

E BAHAMAS  41046 1000            77 81  110/ 17/ 21 1016.6R
NE BAHAMAS 41047 1000            78 79  140/ 14/ 17 1016.8R
120E CANVRL41010 0920            77 78  330/ 12/ 14 1013.4R

END




USA.gov is the U.S. government's official web portal to all federal, state and local government web resources and services.